User: anonymous   Login
Location: Wawayanda State Park
(41.1833°N, 74.4333°W)
Time: 19:40:49
(UTC-05:00)
Language:

RESURS DK-1 - Orbit

View from above orbital plane
View from above orbital plane
View from above satellite
View from above satellite

Ground track
Ground track

The orbit data is extracted from the following two-line orbital elements,

1 29228U 06021A   17051.90653259  .00000237  00000-0  25434-4 0  9999
2 29228  69.9356  33.9056 0004738 200.1299 159.9675 15.02093528590645
Epoch (UTC): 20 February 2017 21:45:24
Eccentricity: 0.0004738
inclination: 69.9356°
perigee height: 557 km
apogee height: 564 km
right ascension of ascending node: 33.9056°
argument of perigee: 200.1299°
revolutions per day: 15.02093528
mean anomaly at epoch: 159.9675°
orbit number at epoch: 59064

The dashed part of the orbit path shows where the satellite is in the earth's shadow,  

DLR